Вернуться в каталог

ONEWEB-0042

АктивенСвязьPO
NORAD 45441·PAYLOAD·🇬🇧 United Kingdom

Запущен Mar 21, 2020 с Baikonur Cosmodrome

Loading…

Ближайшие Пролёты (ближайшие 24 часа)

TLE

СвежийSource: CelesTrak SupGP

Эпоха: Sep 14, 2026, 15:24 UTC

1 45441C 20020T   26257.64218009  .00002253  00000+0  63643-2 0  2576
2 45441  87.8966   3.2782 0001922 105.5187   4.2627 13.11409526    11

Отслеживайте ONEWEB-0042 в реальном времени с AllMySat

Download on the App Store